| time (UTC) | temp F | wind direction | speed knots | gust knots | rain 1hr in | rain 24hr in | rain mn in | humidity % | barometer mb |
| 20260906113526 | 66 | 92 | 0.0 | 0.0 | 0.00 | 0.00 | 0.00 | 99 | 1019.6 |
| 20260906113022 | 66 | 92 | 0.0 | 0.0 | 0.00 | 0.00 | 0.00 | 99 | 1019.4 |
| 20260906112516 | 66 | 88 | 0.0 | 0.0 | 0.00 | 0.00 | 0.00 | 99 | 1019.2 |
| 20260906112013 | 66 | 88 | 0.0 | 0.9 | 0.00 | 0.00 | 0.00 | 99 | 1019.2 |
| 20260906111512 | 66 | 89 | 0.0 | 0.9 | 0.00 | 0.00 | 0.00 | 99 | 1019.4 |
| 20260906111008 | 66 | 89 | 0.0 | 0.0 | 0.00 | 0.00 | 0.00 | 99 | 1019.2 |
| 20260906110502 | 66 | 89 | 0.0 | 0.9 | 0.00 | 0.00 | 0.00 | 99 | 1019.5 |
| 20260906110001 | 66 | 89 | 0.0 | 0.9 | 0.00 | 0.00 | 0.00 | 99 | 1019.2 |
| 20260906105457 | 66 | 89 | 0.0 | 0.0 | 0.00 | 0.00 | 0.00 | 99 | 1019.1 |
| 20260906104953 | 66 | 88 | 0.0 | 0.9 | 0.00 | 0.00 | 0.00 | 99 | 1019.4 |
| 20260906104451 | 66 | 89 | 0.0 | 0.9 | 0.00 | 0.00 | 0.00 | 99 | 1019.3 |
| 20260906103951 | 66 | 89 | 0.0 | 2.6 | 0.00 | 0.00 | 0.00 | 99 | 1019.4 |
| 20260906103449 | 66 | 86 | 0.0 | 0.9 | 0.00 | 0.00 | 0.00 | 99 | 1019.2 |
| 20260906102944 | 66 | 87 | 0.0 | 0.9 | 0.00 | 0.00 | 0.00 | 99 | 1019.2 |
| 20260906102445 | 66 | 87 | 0.0 | 0.9 | 0.00 | 0.00 | 0.00 | 99 | 1019.2 |
| 20260906101945 | 66 | 88 | 0.0 | 0.0 | 0.00 | 0.00 | 0.00 | 99 | 1018.9 |
| 20260906101441 | 66 | 88 | 0.0 | 0.0 | 0.00 | 0.00 | 0.00 | 99 | 1018.9 |
| 20260906100941 | 66 | 88 | 0.0 | 0.9 | 0.00 | 0.00 | 0.00 | 99 | 1018.9 |
| 20260906100436 | 66 | 88 | 0.0 | 0.9 | 0.00 | 0.00 | 0.00 | 99 | 1018.7 |
| 20260906095936 | 66 | 88 | 0.0 | 0.0 | 0.00 | 0.00 | 0.00 | 99 | 1018.8 |
| 20260906095431 | 66 | 89 | 0.0 | 0.0 | 0.00 | 0.00 | 0.00 | 99 | 1019.0 |
| 20260906094926 | 66 | 89 | 0.0 | 0.0 | 0.00 | 0.00 | 0.00 | 99 | 1019.0 |
| 20260906094420 | 66 | 89 | 0.0 | 0.9 | 0.00 | 0.00 | 0.00 | 99 | 1018.9 |
| 20260906093916 | 66 | 90 | 0.0 | 0.0 | 0.00 | 0.00 | 0.00 | 99 | 1018.7 |
| 20260906093413 | 65 | 89 | 0.0 | 0.9 | 0.00 | 0.00 | 0.00 | 99 | 1018.8 |
| 20260906092913 | 65 | 93 | 0.0 | 0.0 | 0.00 | 0.00 | 0.00 | 99 | 1018.8 |
| 20260906092412 | 65 | 93 | 0.0 | 0.9 | 0.00 | 0.00 | 0.00 | 99 | 1018.6 |
| 20260906091908 | 65 | 93 | 0.9 | 0.9 | 0.00 | 0.00 | 0.00 | 99 | 1018.7 |
| 20260906091404 | 65 | 93 | 0.0 | 0.0 | 0.00 | 0.00 | 0.00 | 99 | 1018.7 |
| 20260906090900 | 65 | 93 | 0.0 | 0.9 | 0.00 | 0.00 | 0.00 | 99 | 1018.8 |
| 20260906090359 | 64 | 93 | 0.0 | 0.9 | 0.00 | 0.00 | 0.00 | 99 | 1018.7 |
| 20260906085854 | 64 | 93 | 0.0 | 0.9 | 0.00 | 0.00 | 0.00 | 99 | 1018.6 |
| 20260906085354 | 64 | 93 | 0.0 | 0.9 | 0.00 | 0.00 | 0.00 | 99 | 1018.9 |
| 20260906084848 | 64 | 93 | 0.0 | 0.0 | 0.00 | 0.00 | 0.00 | 99 | 1018.7 |
| 20260906084348 | 64 | 93 | 0.0 | 0.0 | 0.00 | 0.00 | 0.00 | 99 | 1018.5 |
| 20260906083842 | 64 | 93 | 0.0 | 0.0 | 0.00 | 0.00 | 0.00 | 99 | 1018.8 |
| 20260906083338 | 64 | 93 | 0.0 | 0.0 | 0.00 | 0.00 | 0.00 | 99 | 1018.6 |
| 20260906082838 | 64 | 93 | 0.0 | 0.0 | 0.00 | 0.00 | 0.00 | 99 | 1018.6 |
| 20260906082333 | 65 | 93 | 0.0 | 0.0 | 0.00 | 0.00 | 0.00 | 99 | 1018.6 |
| 20260906081829 | 65 | 93 | 0.0 | 0.0 | 0.00 | 0.00 | 0.00 | 99 | 1018.7 |
| 20260906081324 | 65 | 93 | 0.0 | 0.0 | 0.00 | 0.00 | 0.00 | 99 | 1018.7 |
| 20260906080820 | 65 | 93 | 0.0 | 0.0 | 0.00 | 0.00 | 0.00 | 99 | 1018.8 |
| 20260906080316 | 65 | 93 | 0.0 | 0.0 | 0.00 | 0.00 | 0.00 | 99 | 1018.8 |
| 20260906075816 | 65 | 93 | 0.0 | 0.0 | 0.00 | 0.00 | 0.00 | 99 | 1018.5 |
| 20260906075316 | 65 | 93 | 0.0 | 0.0 | 0.00 | 0.00 | 0.00 | 99 | 1018.7 |
| 20260906074811 | 65 | 93 | 0.0 | 0.0 | 0.00 | 0.00 | 0.00 | 99 | 1018.7 |
| 20260906074311 | 65 | 93 | 0.0 | 0.0 | 0.00 | 0.00 | 0.00 | 99 | 1018.7 |
| 20260906073810 | 65 | 93 | 0.0 | 0.0 | 0.00 | 0.00 | 0.00 | 99 | 1018.8 |
| 20260906073305 | 66 | 93 | 0.0 | 0.0 | 0.00 | 0.00 | 0.00 | 99 | 1018.8 |
| 20260906072801 | 66 | 93 | 0.0 | 0.0 | 0.00 | 0.00 | 0.00 | 99 | 1018.6 |
| 20260906072257 | 66 | 93 | 0.0 | 0.0 | 0.00 | 0.00 | 0.00 | 99 | 1018.7 |
| 20260906071752 | 66 | 93 | 0.0 | 0.9 | 0.00 | 0.00 | 0.00 | 99 | 1018.6 |
| 20260906071252 | 66 | 93 | 0.0 | 0.0 | 0.00 | 0.00 | 0.00 | 99 | 1018.7 |
| 20260906070749 | 66 | 93 | 0.0 | 0.9 | 0.00 | 0.00 | 0.00 | 99 | 1018.5 |
| 20260906070244 | 66 | 93 | 0.0 | 0.0 | 0.00 | 0.00 | 0.00 | 99 | 1018.7 |
| 20260906065744 | 66 | 93 | 0.0 | 0.0 | 0.00 | 0.00 | 0.00 | 99 | 1018.8 |
| 20260906065239 | 67 | 93 | 0.0 | 0.0 | 0.00 | 0.00 | 0.00 | 99 | 1018.9 |
| 20260906064735 | 67 | 93 | 0.0 | 0.0 | 0.00 | 0.00 | 0.00 | 98 | 1018.8 |
| 20260906064230 | 67 | 93 | 0.0 | 0.0 | 0.00 | 0.00 | 0.00 | 98 | 1018.8 |
| 20260906063725 | 67 | 93 | 0.0 | 0.0 | 0.00 | 0.00 | 0.00 | 98 | 1018.9 |
| 20260906063221 | 67 | 93 | 0.0 | 0.9 | 0.00 | 0.00 | 0.00 | 97 | 1018.9 |
| 20260906062716 | 67 | 93 | 0.0 | 0.0 | 0.00 | 0.00 | 0.00 | 97 | 1018.8 |
| 20260906062215 | 68 | 93 | 0.0 | 0.0 | 0.00 | 0.00 | 0.00 | 97 | 1018.9 |
| 20260906061711 | 68 | 93 | 0.0 | 0.9 | 0.00 | 0.00 | 0.00 | 96 | 1019.0 |
| 20260906061207 | 68 | 93 | 0.0 | 0.0 | 0.00 | 0.00 | 0.00 | 96 | 1019.0 |
| 20260906060703 | 68 | 93 | 0.0 | 0.9 | 0.00 | 0.00 | 0.00 | 95 | 1018.7 |
| 20260906060200 | 68 | 93 | 0.0 | 0.9 | 0.00 | 0.00 | 0.00 | 95 | 1018.9 |
| 20260906055655 | 69 | 93 | 0.0 | 2.6 | 0.00 | 0.00 | 0.00 | 95 | 1018.9 |
| 20260906055150 | 69 | 102 | 0.0 | 0.9 | 0.00 | 0.00 | 0.00 | 95 | 1019.1 |
| 20260906054646 | 69 | 103 | 0.0 | 0.0 | 0.00 | 0.00 | 0.00 | 95 | 1018.9 |
| 20260906054140 | 69 | 103 | 0.0 | 0.9 | 0.00 | 0.00 | 0.00 | 95 | 1019.0 |
| 20260906053637 | 69 | 126 | 0.0 | 0.9 | 0.00 | 0.00 | 0.00 | 95 | 1019.1 |
| 20260906053137 | 68 | 83 | 0.9 | 0.9 | 0.00 | 0.00 | 0.00 | 95 | 1019.0 |
| 20260906052633 | 68 | 98 | 0.0 | 0.9 | 0.00 | 0.00 | 0.00 | 95 | 1018.8 |
| 20260906052129 | 68 | 95 | 0.9 | 0.9 | 0.00 | 0.00 | 0.00 | 96 | 1018.8 |
| 20260906051626 | 69 | 66 | 0.9 | 2.6 | 0.00 | 0.00 | 0.00 | 95 | 1018.6 |
| 20260906051125 | 68 | 142 | 0.0 | 0.9 | 0.00 | 0.00 | 0.00 | 95 | 1018.7 |
| 20260906050621 | 68 | 99 | 0.0 | 0.9 | 0.00 | 0.00 | 0.00 | 96 | 1018.5 |
| 20260906050116 | 68 | 101 | 0.0 | 0.0 | 0.00 | 0.00 | 0.00 | 95 | 1018.8 |
| 20260906045614 | 68 | 90 | 0.0 | 2.6 | 0.00 | 0.00 | 0.00 | 96 | 1018.5 |
| 20260906045110 | 68 | 87 | 0.0 | 0.9 | 0.00 | 0.00 | 0.00 | 95 | 1018.3 |
| 20260906044606 | 68 | 94 | 0.0 | 0.9 | 0.00 | 0.00 | 0.00 | 95 | 1018.4 |
| 20260906044101 | 68 | 95 | 0.0 | 0.0 | 0.00 | 0.00 | 0.00 | 95 | 1018.5 |
| 20260906043557 | 68 | 95 | 0.0 | 0.9 | 0.00 | 0.00 | 0.00 | 95 | 1018.4 |
| 20260906043052 | 68 | 95 | 0.0 | 0.0 | 0.00 | 0.00 | 0.00 | 95 | 1018.4 |
| 20260906042551 | 69 | 95 | 0.0 | 0.9 | 0.00 | 0.00 | 0.00 | 95 | 1018.4 |
| 20260906042046 | 69 | 118 | 0.0 | 0.0 | 0.00 | 0.00 | 0.00 | 95 | 1018.4 |
| 20260906041542 | 69 | 118 | 0.0 | 0.9 | 0.00 | 0.00 | 0.00 | 94 | 1018.3 |
| 20260906041037 | 68 | 120 | 0.0 | 0.0 | 0.00 | 0.00 | 0.00 | 94 | 1018.0 |
| 20260906040532 | 68 | 141 | 0.0 | 0.9 | 0.00 | 0.00 | 0.00 | 94 | 1018.0 |
| 20260906040028 | 68 | 97 | 0.0 | 0.9 | 0.00 | 0.00 | 0.00 | 94 | 1017.9 |
| 20260906035523 | 68 | 91 | 0.0 | 0.9 | 0.00 | 0.00 | 0.00 | 94 | 1017.9 |
| 20260906035019 | 69 | 120 | 0.0 | 0.9 | 0.00 | 0.00 | 0.00 | 94 | 1017.8 |
| 20260906034518 | 68 | 126 | 0.0 | 2.6 | 0.00 | 0.00 | 0.00 | 95 | 1017.7 |
| 20260906034013 | 68 | 89 | 0.0 | 0.9 | 0.00 | 0.00 | 0.00 | 95 | 1017.9 |
| 20260906033508 | 68 | 89 | 0.0 | 0.9 | 0.00 | 0.00 | 0.00 | 95 | 1017.6 |
| 20260906033004 | 68 | 89 | 0.0 | 0.9 | 0.00 | 0.00 | 0.00 | 95 | 1017.6 |
| 20260906032501 | 69 | 84 | 0.9 | 0.9 | 0.00 | 0.00 | 0.00 | 94 | 1017.5 |
| 20260906032000 | 69 | 85 | 0.0 | 0.9 | 0.00 | 0.00 | 0.00 | 94 | 1017.5 |
| 20260906031456 | 69 | 92 | 0.0 | 0.9 | 0.00 | 0.00 | 0.00 | 94 | 1017.3 |
| 20260906030951 | 69 | 96 | 0.0 | 0.9 | 0.00 | 0.00 | 0.00 | 93 | 1017.4 |
| 20260906030446 | 69 | 105 | 0.0 | 0.9 | 0.00 | 0.00 | 0.00 | 93 | 1017.5 |
| 20260906025940 | 69 | 90 | 0.9 | 0.9 | 0.00 | 0.00 | 0.00 | 93 | 1017.3 |
| 20260906025440 | 69 | 102 | 0.0 | 0.9 | 0.00 | 0.00 | 0.00 | 93 | 1017.6 |
| 20260906024939 | 70 | 102 | 0.0 | 0.9 | 0.00 | 0.00 | 0.00 | 92 | 1017.6 |
| 20260906024438 | 70 | 102 | 0.0 | 0.9 | 0.00 | 0.00 | 0.00 | 92 | 1017.3 |
| 20260906023939 | 70 | 133 | 0.0 | 0.9 | 0.00 | 0.00 | 0.00 | 91 | 1017.4 |
| 20260906023436 | 70 | 93 | 0.0 | 0.9 | 0.00 | 0.00 | 0.00 | 91 | 1017.4 |
| 20260906022936 | 70 | 78 | 0.9 | 2.6 | 0.00 | 0.00 | 0.00 | 91 | 1017.3 |
| 20260906022431 | 70 | 91 | 0.0 | 0.0 | 0.00 | 0.00 | 0.00 | 91 | 1017.3 |
| 20260906021926 | 70 | 91 | 0.0 | 0.9 | 0.00 | 0.00 | 0.00 | 90 | 1017.2 |
| 20260906021426 | 70 | 119 | 0.0 | 0.0 | 0.00 | 0.00 | 0.00 | 91 | 1017.4 |
| 20260906020926 | 71 | 103 | 0.0 | 0.9 | 0.00 | 0.00 | 0.00 | 91 | 1017.5 |
| 20260906020421 | 71 | 102 | 0.0 | 0.9 | 0.00 | 0.00 | 0.00 | 91 | 1017.6 |
| 20260906015915 | 71 | 104 | 0.0 | 0.9 | 0.00 | 0.00 | 0.00 | 91 | 1017.2 |
| 20260906015415 | 71 | 166 | 2.6 | 5.2 | 0.00 | 0.00 | 0.00 | 91 | 1017.4 |
| 20260906014915 | 71 | 105 | 0.9 | 2.6 | 0.00 | 0.00 | 0.00 | 91 | 1017.4 |
| 20260906014414 | 71 | 92 | 0.0 | 0.9 | 0.00 | 0.00 | 0.00 | 90 | 1017.4 |
| 20260906013911 | 71 | 99 | 0.0 | 0.9 | 0.00 | 0.00 | 0.00 | 91 | 1017.3 |
| 20260906013406 | 71 | 99 | 0.0 | 0.9 | 0.00 | 0.00 | 0.00 | 90 | 1017.6 |
| 20260906012902 | 71 | 82 | 0.0 | 0.9 | 0.00 | 0.00 | 0.00 | 90 | 1017.5 |
| 20260906012402 | 71 | 82 | 0.0 | 0.9 | 0.00 | 0.00 | 0.00 | 91 | 1017.5 |
| 20260906011901 | 71 | 106 | 0.0 | 0.9 | 0.00 | 0.00 | 0.00 | 90 | 1017.4 |
| 20260906011356 | 71 | 102 | 0.0 | 0.9 | 0.00 | 0.00 | 0.00 | 90 | 1017.6 |
| 20260906010852 | 71 | 89 | 0.9 | 2.6 | 0.00 | 0.00 | 0.00 | 90 | 1017.5 |
| 20260906010348 | 71 | 98 | 0.0 | 0.9 | 0.00 | 0.00 | 0.00 | 90 | 1017.6 |
| 20260906005843 | 71 | 107 | 0.9 | 2.6 | 0.00 | 0.00 | 0.00 | 90 | 1017.5 |
| 20260906005342 | 71 | 69 | 0.9 | 0.9 | 0.00 | 0.00 | 0.00 | 89 | 1017.6 |
| 20260906004842 | 71 | 103 | 0.9 | 0.9 | 0.00 | 0.00 | 0.00 | 90 | 1017.3 |
| 20260906004341 | 71 | 120 | 0.0 | 2.6 | 0.00 | 0.00 | 0.00 | 89 | 1017.3 |
| 20260906003836 | 71 | 110 | 0.0 | 0.9 | 0.00 | 0.00 | 0.00 | 89 | 1017.4 |
| 20260906003332 | 71 | 121 | 0.0 | 0.9 | 0.00 | 0.00 | 0.00 | 89 | 1016.9 |
| 20260906002827 | 71 | 95 | 0.0 | 0.0 | 0.00 | 0.00 | 0.00 | 90 | 1017.2 |
| 20260906002326 | 71 | 137 | 0.9 | 2.6 | 0.00 | 0.00 | 0.00 | 89 | 1017.1 |
| 20260906001823 | 72 | 88 | 0.9 | 2.6 | 0.00 | 0.00 | 0.00 | 89 | 1017.1 |
| 20260906001318 | 72 | 102 | 0.0 | 0.9 | 0.00 | 0.00 | 0.00 | 89 | 1017.1 |
| 20260906000813 | 72 | 87 | 1.7 | 2.6 | 0.00 | 0.00 | 0.00 | 89 | 1017.2 |
| 20260906000307 | 72 | 83 | 1.7 | 2.6 | 0.00 | 0.00 | 0.00 | 88 | 1017.0 |
| 20260905235802 | 72 | 83 | 0.9 | 2.6 | 0.00 | 0.00 | 0.00 | 88 | 1016.9 |
| 20260905235306 | 73 | 65 | 0.9 | 2.6 | 0.00 | 0.00 | 0.00 | 87 | 1017.0 |
| 20260905234758 | 73 | 87 | 0.0 | 2.6 | 0.00 | 0.00 | 0.00 | 88 | 1016.7 |
| 20260905234252 | 73 | 86 | 0.9 | 2.6 | 0.00 | 0.00 | 0.00 | 87 | 1016.9 |
| 20260905233748 | 73 | 78 | 0.9 | 0.9 | 0.00 | 0.00 | 0.00 | 86 | 1016.7 |
| 20260905233248 | 74 | 80 | 1.7 | 2.6 | 0.00 | 0.00 | 0.00 | 85 | 1016.8 |
| 20260905232747 | 74 | 67 | 3.5 | 5.2 | 0.00 | 0.00 | 0.00 | 84 | 1016.8 |
| 20260905232243 | 75 | 111 | 0.0 | 2.6 | 0.00 | 0.00 | 0.00 | 84 | 1016.6 |
| 20260905231739 | 75 | 91 | 0.9 | 3.5 | 0.00 | 0.00 | 0.00 | 82 | 1016.7 |
| 20260905231234 | 75 | 105 | 0.0 | 0.9 | 0.00 | 0.00 | 0.00 | 83 | 1016.5 |
| 20260905230730 | 75 | 74 | 1.7 | 2.6 | 0.00 | 0.00 | 0.00 | 83 | 1016.8 |
| 20260905230228 | 75 | 82 | 1.7 | 3.5 | 0.00 | 0.00 | 0.00 | 81 | 1016.5 |
| 20260905225728 | 76 | 104 | 0.9 | 3.5 | 0.00 | 0.00 | 0.00 | 81 | 1016.4 |
| 20260905225223 | 76 | 66 | 2.6 | 4.3 | 0.00 | 0.00 | 0.00 | 82 | 1016.5 |
| 20260905224722 | 77 | 103 | 0.9 | 4.3 | 0.00 | 0.00 | 0.00 | 82 | 1016.1 |
| 20260905224217 | 77 | 83 | 0.9 | 3.5 | 0.00 | 0.00 | 0.00 | 81 | 1016.2 |
| 20260905223714 | 78 | 129 | 1.7 | 3.5 | 0.00 | 0.00 | 0.00 | 80 | 1016.2 |
| 20260905223210 | 78 | 64 | 2.6 | 3.5 | 0.00 | 0.00 | 0.00 | 79 | 1016.2 |
| 20260905222706 | 78 | 99 | 0.9 | 2.6 | 0.00 | 0.00 | 0.00 | 80 | 1016.0 |
| 20260905222205 | 78 | 118 | 0.0 | 2.6 | 0.00 | 0.00 | 0.00 | 80 | 1016.3 |
| 20260905221700 | 78 | 103 | 0.9 | 4.3 | 0.00 | 0.00 | 0.00 | 80 | 1016.1 |
| 20260905221158 | 79 | 99 | 0.9 | 3.5 | 0.00 | 0.00 | 0.00 | 80 | 1016.1 |
| 20260905220653 | 80 | 122 | 0.0 | 3.5 | 0.00 | 0.00 | 0.00 | 78 | 1016.1 |
| 20260905220149 | 80 | 96 | 0.9 | 3.5 | 0.00 | 0.00 | 0.00 | 77 | 1016.2 |
| 20260905215648 | 79 | 91 | 0.0 | 2.6 | 0.00 | 0.00 | 0.00 | 79 | 1016.0 |
| 20260905215144 | 79 | 105 | 0.0 | 0.9 | 0.00 | 0.00 | 0.00 | 79 | 1016.1 |
| 20260905214640 | 79 | 102 | 0.9 | 0.9 | 0.00 | 0.00 | 0.00 | 78 | 1016.1 |
| 20260905214135 | 80 | 99 | 0.9 | 0.9 | 0.00 | 0.00 | 0.00 | 76 | 1016.0 |
| 20260905213630 | 81 | 112 | 0.0 | 0.9 | 0.00 | 0.00 | 0.00 | 73 | 1015.8 |
| 20260905213125 | 81 | 107 | 0.0 | 0.9 | 0.00 | 0.00 | 0.00 | 72 | 1015.8 |
| 20260905212621 | 81 | 97 | 0.0 | 3.5 | 0.00 | 0.00 | 0.00 | 72 | 1015.9 |
| 20260905212120 | 81 | 86 | 0.9 | 0.9 | 0.00 | 0.00 | 0.00 | 72 | 1015.9 |
| 20260905211615 | 81 | 120 | 0.0 | 2.6 | 0.00 | 0.00 | 0.00 | 74 | 1015.7 |
| 20260905211111 | 81 | 100 | 0.0 | 0.9 | 0.00 | 0.00 | 0.00 | 74 | 1016.0 |
| 20260905210607 | 81 | 108 | 0.0 | 2.6 | 0.00 | 0.00 | 0.00 | 72 | 1015.8 |
| 20260905210107 | 81 | 73 | 1.7 | 3.5 | 0.00 | 0.00 | 0.00 | 75 | 1015.9 |
| 20260905205606 | 81 | 89 | 1.7 | 2.6 | 0.00 | 0.00 | 0.00 | 74 | 1015.7 |
| 20260905205106 | 81 | 108 | 0.9 | 0.9 | 0.00 | 0.00 | 0.00 | 75 | 1015.7 |
| 20260905204600 | 82 | 91 | 0.9 | 2.6 | 0.00 | 0.00 | 0.00 | 73 | 1016.0 |
| 20260905204055 | 81 | 92 | 0.9 | 2.6 | 0.00 | 0.00 | 0.00 | 75 | 1016.1 |
| 20260905203555 | 81 | 92 | 0.9 | 3.5 | 0.00 | 0.00 | 0.00 | 74 | 1016.0 |
| 20260905203051 | 81 | 99 | 0.0 | 0.9 | 0.00 | 0.00 | 0.00 | 75 | 1016.1 |
| 20260905202546 | 80 | 98 | 0.0 | 2.6 | 0.00 | 0.00 | 0.00 | 76 | 1016.0 |
| 20260905202042 | 81 | 110 | 0.0 | 0.9 | 0.00 | 0.00 | 0.00 | 78 | 1016.1 |
| 20260905201537 | 81 | 92 | 0.0 | 2.6 | 0.00 | 0.00 | 0.00 | 77 | 1016.1 |
| 20260905201037 | 81 | 144 | 0.9 | 0.9 | 0.00 | 0.00 | 0.00 | 77 | 1016.1 |
| 20260905200532 | 80 | 90 | 0.0 | 0.9 | 0.00 | 0.00 | 0.00 | 78 | 1016.2 |
| 20260905200032 | 80 | 77 | 0.9 | 2.6 | 0.00 | 0.00 | 0.00 | 78 | 1016.0 |
| 20260905195526 | 80 | 116 | 0.0 | 0.9 | 0.00 | 0.00 | 0.00 | 79 | 1016.0 |
| 20260905195022 | 80 | 87 | 0.9 | 2.6 | 0.00 | 0.00 | 0.00 | 81 | 1016.1 |
| 20260905194521 | 79 | 102 | 0.0 | 0.9 | 0.00 | 0.00 | 0.00 | 83 | 1016.3 |
| 20260905194021 | 79 | 110 | 0.0 | 0.9 | 0.00 | 0.00 | 0.00 | 83 | 1016.2 |
| 20260905193521 | 77 | 123 | 0.0 | 0.9 | 0.00 | 0.00 | 0.00 | 86 | 1016.5 |
| 20260905193017 | 77 | 110 | 0.0 | 2.6 | 0.00 | 0.00 | 0.00 | 86 | 1016.7 |
| 20260905192512 | 77 | 90 | 0.0 | 0.9 | 0.00 | 0.00 | 0.00 | 87 | 1016.5 |
| 20260905192008 | 77 | 90 | 0.9 | 0.9 | 0.00 | 0.00 | 0.00 | 85 | 1016.5 |
| 20260905191507 | 77 | 98 | 0.9 | 2.6 | 0.00 | 0.00 | 0.00 | 86 | 1016.4 |
| 20260905191006 | 76 | 91 | 0.0 | 2.6 | 0.00 | 0.00 | 0.00 | 87 | 1016.5 |
| 20260905190504 | 76 | 97 | 0.0 | 3.5 | 0.00 | 0.00 | 0.00 | 86 | 1016.8 |
| 20260905190003 | 76 | 96 | 0.9 | 2.6 | 0.00 | 0.00 | 0.00 | 87 | 1016.6 |
| 20260905185458 | 76 | 96 | 0.9 | 2.6 | 0.00 | 0.00 | 0.00 | 86 | 1016.6 |
| 20260905184957 | 76 | 101 | 0.9 | 0.9 | 0.00 | 0.00 | 0.00 | 86 | 1016.6 |
| 20260905184452 | 75 | 89 | 0.9 | 2.6 | 0.00 | 0.00 | 0.00 | 88 | 1016.7 |
| 20260905183951 | 75 | 101 | 0.0 | 0.9 | 0.00 | 0.00 | 0.00 | 89 | 1016.7 |
| 20260905183450 | 75 | 94 | 0.0 | 0.0 | 0.00 | 0.00 | 0.00 | 89 | 1016.8 |
| 20260905182945 | 75 | 94 | 0.0 | 0.0 | 0.00 | 0.00 | 0.00 | 89 | 1016.8 |
| 20260905182445 | 75 | 99 | 0.0 | 0.9 | 0.00 | 0.00 | 0.00 | 89 | 1017.0 |
| 20260905181940 | 75 | 89 | 0.0 | 0.9 | 0.00 | 0.00 | 0.00 | 89 | 1016.9 |
| 20260905181441 | 75 | 94 | 0.0 | 0.9 | 0.00 | 0.00 | 0.00 | 89 | 1016.8 |
| 20260905180940 | 75 | 108 | 0.0 | 0.0 | 0.00 | 0.00 | 0.00 | 89 | 1016.9 |
| 20260905180435 | 75 | 91 | 0.0 | 0.9 | 0.00 | 0.00 | 0.00 | 89 | 1016.8 |
| 20260905175930 | 75 | 85 | 0.0 | 0.9 | 0.00 | 0.00 | 0.00 | 89 | 1016.7 |
| 20260905175429 | 75 | 78 | 0.0 | 3.5 | 0.00 | 0.00 | 0.00 | 89 | 1016.7 |
| 20260905174925 | 75 | 85 | 0.0 | 0.9 | 0.00 | 0.00 | 0.00 | 88 | 1016.7 |
| 20260905174420 | 75 | 89 | 0.9 | 0.9 | 0.00 | 0.00 | 0.00 | 89 | 1016.9 |
| 20260905173916 | 75 | 123 | 0.0 | 0.9 | 0.00 | 0.00 | 0.00 | 90 | 1016.7 |
| 20260905173413 | 75 | 104 | 0.0 | 0.9 | 0.00 | 0.00 | 0.00 | 89 | 1016.8 |
| 20260905172913 | 75 | 93 | 0.9 | 0.9 | 0.00 | 0.00 | 0.00 | 90 | 1016.7 |
| 20260905172410 | 75 | 98 | 0.0 | 0.0 | 0.00 | 0.00 | 0.00 | 89 | 1016.7 |
| 20260905171907 | 75 | 84 | 0.0 | 0.9 | 0.00 | 0.00 | 0.00 | 89 | 1016.7 |
| 20260905171403 | 76 | 99 | 0.0 | 2.6 | 0.00 | 0.00 | 0.00 | 89 | 1016.6 |
| 20260905170859 | 76 | 95 | 0.9 | 0.9 | 0.00 | 0.00 | 0.00 | 89 | 1016.9 |
| 20260905170355 | 76 | 40 | 1.7 | 3.5 | 0.00 | 0.00 | 0.00 | 87 | 1016.8 |
| 20260905165854 | 76 | 96 | 0.0 | 2.6 | 0.00 | 0.00 | 0.00 | 87 | 1016.7 |
| 20260905165349 | 76 | 82 | 0.9 | 2.6 | 0.00 | 0.00 | 0.00 | 88 | 1016.6 |
| 20260905164844 | 77 | 51 | 1.7 | 2.6 | 0.00 | 0.00 | 0.00 | 87 | 1016.9 |
| 20260905164339 | 77 | 86 | 0.9 | 2.6 | 0.00 | 0.00 | 0.00 | 88 | 1016.9 |
| 20260905163834 | 77 | 87 | 0.9 | 0.9 | 0.00 | 0.00 | 0.00 | 87 | 1016.8 |
| 20260905163331 | 76 | 102 | 0.0 | 2.6 | 0.00 | 0.00 | 0.00 | 89 | 1016.8 |
| 20260905162827 | 76 | 71 | 1.7 | 3.5 | 0.00 | 0.00 | 0.00 | 89 | 1016.7 |
| 20260905162327 | 76 | 98 | 0.9 | 0.9 | 0.00 | 0.00 | 0.00 | 89 | 1016.8 |
| 20260905161827 | 77 | 89 | 0.0 | 0.9 | 0.00 | 0.00 | 0.00 | 89 | 1016.5 |
| 20260905161326 | 77 | 89 | 0.0 | 0.9 | 0.00 | 0.00 | 0.00 | 89 | 1016.8 |
| 20260905160824 | 77 | 113 | 0.9 | 2.6 | 0.00 | 0.00 | 0.00 | 88 | 1016.6 |
| 20260905160319 | 77 | 101 | 0.0 | 2.6 | 0.00 | 0.00 | 0.00 | 89 | 1016.9 |
| 20260905155814 | 77 | 89 | 0.9 | 0.9 | 0.00 | 0.00 | 0.00 | 88 | 1016.9 |
| 20260905155313 | 77 | 95 | 0.0 | 2.6 | 0.00 | 0.00 | 0.00 | 88 | 1016.6 |
| 20260905154807 | 77 | 82 | 0.0 | 0.9 | 0.00 | 0.00 | 0.00 | 88 | 1016.7 |
| 20260905154302 | 76 | 83 | 0.0 | 0.9 | 0.00 | 0.00 | 0.00 | 90 | 1016.6 |
| 20260905153758 | 76 | 95 | 0.9 | 0.9 | 0.00 | 0.00 | 0.00 | 91 | 1016.4 |
| 20260905153254 | 76 | 81 | 0.9 | 2.6 | 0.00 | 0.00 | 0.00 | 91 | 1016.4 |
| 20260905152749 | 76 | 78 | 0.0 | 2.6 | 0.00 | 0.00 | 0.00 | 91 | 1016.3 |
| 20260905152248 | 76 | 71 | 0.9 | 2.6 | 0.00 | 0.00 | 0.00 | 91 | 1016.3 |
| 20260905151748 | 75 | 41 | 1.7 | 2.6 | 0.00 | 0.00 | 0.00 | 93 | 1016.2 |
| 20260905151244 | 74 | 96 | 0.9 | 0.9 | 0.00 | 0.00 | 0.00 | 93 | 1016.1 |
| 20260905150744 | 75 | 102 | 0.0 | 2.6 | 0.00 | 0.00 | 0.00 | 93 | 1016.3 |
| 20260905150243 | 74 | 79 | 0.0 | 0.9 | 0.00 | 0.00 | 0.00 | 95 | 1016.1 |
| 20260905145741 | 74 | 75 | 0.0 | 0.0 | 0.00 | 0.00 | 0.00 | 95 | 1016.3 |
| 20260905145236 | 73 | 75 | 0.0 | 2.6 | 0.00 | 0.00 | 0.00 | 96 | 1016.2 |
| 20260905144734 | 73 | 76 | 0.0 | 2.6 | 0.00 | 0.00 | 0.00 | 96 | 1016.2 |
| 20260905144230 | 73 | 88 | 0.0 | 0.9 | 0.00 | 0.00 | 0.00 | 97 | 1016.1 |
| 20260905143729 | 73 | 82 | 0.0 | 0.9 | 0.00 | 0.00 | 0.00 | 97 | 1016.2 |
| 20260905143229 | 73 | 81 | 0.9 | 2.6 | 0.00 | 0.00 | 0.00 | 96 | 1016.1 |
| 20260905142727 | 73 | 89 | 0.0 | 3.5 | 0.00 | 0.00 | 0.00 | 97 | 1016.0 |
| 20260905142222 | 73 | 95 | 0.0 | 2.6 | 0.00 | 0.00 | 0.00 | 98 | 1016.2 |
| 20260905141718 | 73 | 101 | 0.0 | 0.9 | 0.00 | 0.00 | 0.00 | 98 | 1016.0 |
| 20260905141214 | 73 | 153 | 0.0 | 2.6 | 0.00 | 0.00 | 0.00 | 98 | 1016.2 |
| 20260905140708 | 73 | 87 | 0.9 | 0.9 | 0.00 | 0.00 | 0.00 | 98 | 1016.1 |
| 20260905140203 | 72 | 92 | 0.0 | 0.9 | 0.00 | 0.00 | 0.00 | 99 | 1016.2 |
| 20260905135657 | 72 | 92 | 0.0 | 0.9 | 0.00 | 0.00 | 0.00 | 99 | 1015.9 |
| 20260905135154 | 72 | 88 | 0.0 | 0.0 | 0.00 | 0.00 | 0.00 | 99 | 1015.8 |
| 20260905134653 | 72 | 81 | 0.0 | 2.6 | 0.00 | 0.00 | 0.00 | 99 | 1015.7 |
| 20260905134152 | 72 | 83 | 0.0 | 0.9 | 0.00 | 0.00 | 0.00 | 99 | 1015.9 |
| 20260905133647 | 71 | 84 | 0.9 | 2.6 | 0.00 | 0.00 | 0.00 | 99 | 1015.9 |
| 20260905133147 | 71 | 84 | 0.0 | 0.9 | 0.00 | 0.00 | 0.00 | 99 | 1016.0 |
| 20260905132647 | 71 | 84 | 0.0 | 0.9 | 0.00 | 0.00 | 0.00 | 99 | 1015.7 |
| 20260905132142 | 71 | 91 | 0.9 | 0.9 | 0.00 | 0.00 | 0.00 | 99 | 1016.0 |
| 20260905131637 | 71 | 88 | 0.0 | 0.9 | 0.00 | 0.00 | 0.00 | 99 | 1015.8 |
| 20260905131138 | 71 | 92 | 0.9 | 0.9 | 0.00 | 0.00 | 0.00 | 99 | 1016.4 |
| 20260905130633 | 71 | 88 | 0.9 | 0.9 | 0.00 | 0.00 | 0.00 | 99 | 1016.3 |
| 20260905130132 | 71 | 103 | 0.0 | 0.9 | 0.00 | 0.00 | 0.00 | 99 | 1016.1 |
| 20260905125626 | 70 | 95 | 0.0 | 0.9 | 0.00 | 0.00 | 0.00 | 99 | 1015.6 |
| 20260905125122 | 71 | 110 | 0.9 | 2.6 | 0.00 | 0.00 | 0.00 | 99 | 1015.6 |
| 20260905124619 | 71 | 83 | 0.0 | 0.9 | 0.00 | 0.00 | 0.00 | 99 | 1015.4 |
| 20260905124115 | 71 | 83 | 0.0 | 0.9 | 0.00 | 0.00 | 0.00 | 99 | 1015.5 |
| 20260905123609 | 71 | 107 | 0.0 | 0.9 | 0.00 | 0.00 | 0.00 | 99 | 1015.3 |
| 20260905123107 | 71 | 108 | 0.0 | 0.0 | 0.00 | 0.00 | 0.00 | 99 | 1015.3 |
| 20260905122607 | 71 | 108 | 0.0 | 0.0 | 0.00 | 0.00 | 0.00 | 99 | 1015.1 |
| 20260905122106 | 71 | 111 | 0.0 | 0.9 | 0.00 | 0.00 | 0.00 | 99 | 1015.1 |
| 20260905121601 | 71 | 92 | 0.0 | 2.6 | 0.00 | 0.00 | 0.00 | 99 | 1014.9 |
| 20260905121057 | 71 | 129 | 0.0 | 0.9 | 0.00 | 0.00 | 0.00 | 99 | 1015.0 |
| 20260905120555 | 71 | 127 | 0.0 | 0.9 | 0.00 | 0.00 | 0.00 | 99 | 1014.8 |
| 20260905120051 | 71 | 101 | 0.0 | 0.0 | 0.00 | 0.00 | 0.00 | 99 | 1014.6 |
| 20260905115550 | 71 | 101 | 0.0 | 0.9 | 0.00 | 0.00 | 0.00 | 99 | 1014.6 |
| 20260905115044 | 71 | 101 | 0.0 | 0.0 | 0.00 | 0.00 | 0.00 | 99 | 1014.7 |
| 20260905114544 | 71 | 101 | 0.0 | 0.0 | 0.00 | 0.00 | 0.00 | 99 | 1014.6 |
| 20260905114043 | 71 | 101 | 0.0 | 0.9 | 0.00 | 0.00 | 0.00 | 99 | 1014.5 |